Overview Statistics Trail Chart Weather Telemetry Raw packets
 

This is the latest recevied weather packets stored in our database for station/object KK7MLS-13. If no packets are shown the sender has not sent any weather packets the latest 10 day(s).

<< 107 108 109 110 111 112 113 >>
Time Temp. Humidity Pressure Rain* Wind** Luminosity Snow
1787864162 23.89° C 49% 1018.9 hPa 0 mm - 224 W/m² -
1787863862 24.44° C 48% 1019.1 hPa 0 mm - 209 W/m² -
1787863560 24.44° C 50% 1019 hPa 0 mm - 232 W/m² -
1787863255 23.89° C 50% 1019 hPa 0 mm - 319 W/m² -
1787862951 23.89° C 50% 1018.9 hPa 0 mm - 262 W/m² -
1787862646 23.89° C 52% 1018.8 hPa 0 mm - 772 W/m² -
1787862341 23.33° C 53% 1018.9 hPa 0 mm - 245 W/m² -
1787862037 23.33° C 51% 1019 hPa 0 mm - 198 W/m² -
1787861736 23.33° C 52% 1018.9 hPa 0 mm - 137 W/m² -
1787861434 24.44° C 48% 1018.8 hPa 0 mm - 191 W/m² -
1787861129 24.44° C 48% 1018.8 hPa 0 mm - 226 W/m² -
1787860829 25° C 50% 1018.8 hPa 0 mm - 374 W/m² -
1787860529 23.89° C 49% 1018.7 hPa 0 mm - 877 W/m² -
1787860224 23.33° C 51% 1018.8 hPa 0 mm - 408 W/m² -
1787859926 22.78° C 53% 1018.9 hPa 0 mm - 820 W/m² -
1787859616 23.89° C 50% 1019 hPa 0 mm - 128 W/m² -
1787859314 24.44° C 49% 1019 hPa 0 mm - 116 W/m² -
1787859011 23.89° C 51% 1019.1 hPa 0 mm - 767 W/m² -
1787858707 25° C 48% 1019 hPa 0 mm - 113 W/m² -
1787858401 24.44° C 51% 1019.2 hPa 0 mm - 703 W/m² -
1787858096 24.44° C 47% 1019.1 hPa 0 mm - 736 W/m² -
1787857791 23.89° C 52% 1019.3 hPa 0 mm - 731 W/m² -
1787857487 23.33° C 50% 1019.1 hPa 0 mm - 311 W/m² -
1787857185 23.89° C 49% 1019.3 hPa 0 mm - 490 W/m² -
1787856880 23.89° C 50% 1019.4 hPa 0 mm - 701 W/m² -

* Rain latest hour (hover to see other rain measurements)
** Current wind speed in m/s (hover to see current wind gust speed)